19-05-2022, 00:00:03,     47,    0.0,   10.1,   0.00,   0.00, 1012.6,   98.8, -999.0
19-05-2022, 00:00:13,     48,    0.0,    9.9,   0.00,   0.00, 1012.6,   98.7, -999.0
19-05-2022, 00:00:23,     48,    0.0,   10.0,   0.00,   0.01, 1012.6,   98.8, -999.0
19-05-2022, 00:00:33,     48,    0.0,    9.9,   0.00,   0.00, 1012.6,   98.7, -999.0
19-05-2022, 00:00:43,     47,    0.0,    9.9,   0.00,   0.00, 1012.6,   98.6, -999.0
19-05-2022, 00:00:53,     47,    0.0,   10.0,   0.00,   0.00, 1012.6,   98.8, -999.0
19-05-2022, 00:01:03,     48,    0.0,   10.0,   0.00,   0.00, 1012.5,   98.7, -999.0
19-05-2022, 00:01:13,     47,    0.0,   10.0,   0.00,   0.00, 1012.5,   98.7, -999.0
19-05-2022, 00:01:23,     47,    0.0,   10.1,   0.00,   0.00, 1012.5,   98.7, -999.0
19-05-2022, 00:01:33,     48,    0.0,   10.1,   0.00,   0.00, 1012.5,   98.7, -999.0
19-05-2022, 00:01:43,     48,    0.0,   10.2,   0.00,   0.00, 1012.5,   98.8, -999.0
19-05-2022, 00:01:52,     48,    0.0,   10.2,   0.00,   0.00, 1012.5,   98.7, -999.0
19-05-2022, 00:02:03,     47,    0.0,   10.2,   0.00,   0.00, 1012.5,   98.8, -999.0
19-05-2022, 00:02:13,     47,    0.0,   10.3,   0.00,   0.00, 1012.5,   98.8, -999.0
19-05-2022, 00:02:22,     47,    0.0,   10.2,   0.00,   0.00, 1012.5,   98.8, -999.0
19-05-2022, 00:02:32,     48,    0.0,   10.1,   0.00,   0.00, 1012.5,   98.7, -999.0
19-05-2022, 00:02:43,     47,    0.0,   10.2,   0.00,   0.00, 1012.6,   98.7, -999.0
19-05-2022, 00:02:52,     47,    0.0,   10.2,   0.00,   0.00, 1012.6,   98.7, -999.0
19-05-2022, 00:03:02,     48,    0.0,   10.2,   0.00,   0.00, 1012.5,   98.7, -999.0
19-05-2022, 00:03:12,     47,    0.0,   10.2,   0.00,   0.00, 1012.5,   98.7, -999.0
19-05-2022, 00:03:22,     47,    0.0,   10.3,   0.00,   0.00, 1012.5,   98.8, -999.0
19-05-2022, 00:03:32,     47,    0.0,   10.2,   0.00,   0.00, 1012.6,   98.7, -999.0
19-05-2022, 00:03:42,     47,    0.0,   10.2,   0.00,   0.00, 1012.6,   98.7, -999.0
19-05-2022, 00:03:52,     48,    0.0,   10.1,   0.00,   0.00, 1012.5,   98.7, -999.0
19-05-2022, 00:04:02,     48,    0.0,   10.2,   0.00,   0.00, 1012.5,   98.7, -999.0
19-05-2022, 00:04:12,     48,    0.0,   10.2,   0.00,   0.00, 1012.5,   98.7, -999.0
19-05-2022, 00:04:22,     48,    0.0,   10.2,   0.00,   0.00, 1012.5,   98.7, -999.0
19-05-2022, 00:04:32,     47,    0.0,   10.1,   0.00,   0.00, 1012.4,   98.7, -999.0
19-05-2022, 00:04:42,     48,    0.0,   10.1,   0.00,   0.00, 1012.4,   98.7, -999.0
19-05-2022, 00:04:52,     47,    0.0,   10.1,   0.00,   0.00, 1012.5,   98.8, -999.0
19-05-2022, 00:05:01,     48,    0.0,   10.1,   0.00,   0.00, 1012.4,   98.7, -999.0
19-05-2022, 00:05:12,     48,    0.0,   10.1,   0.00,   0.00, 1012.4,   98.8, -999.0
19-05-2022, 00:05:22,     48,    0.0,   10.0,   0.00,   0.00, 1012.4,   98.7, -999.0
19-05-2022, 00:05:31,     47,    0.0,   10.1,   0.00,   0.00, 1012.4,   98.7, -999.0
19-05-2022, 00:05:41,     47,    0.0,   10.0,   0.00,   0.00, 1012.4,   98.8, -999.0
19-05-2022, 00:05:52,     47,    0.0,   10.0,   0.00,   0.00, 1012.4,   98.8, -999.0
19-05-2022, 00:06:01,     48,    0.0,   10.0,   0.00,   0.00, 1012.4,   98.8, -999.0
19-05-2022, 00:06:11,     48,    0.0,    9.9,   0.00,   0.00, 1012.4,   98.7, -999.0
19-05-2022, 00:06:21,     48,    0.0,    9.9,   0.00,   0.00, 1012.4,   98.8, -999.0
19-05-2022, 00:06:31,     47,    0.0,    9.9,   0.00,   0.00, 1012.4,   98.8, -999.0
19-05-2022, 00:06:41,     48,    0.0,   10.0,   0.00,   0.00, 1012.4,   98.8, -999.0
19-05-2022, 00:06:51,     47,    0.0,   10.0,   0.00,   0.00, 1012.4,   98.8, -999.0
19-05-2022, 00:07:01,     48,    0.0,   10.1,   0.00,   0.00, 1012.3,   98.7, -999.0
19-05-2022, 00:07:11,     47,    0.0,   10.2,   0.00,   0.00, 1012.4,   98.7, -999.0
19-05-2022, 00:07:21,     47,    0.0,   10.2,   0.00,   0.00, 1012.4,   98.7, -999.0
19-05-2022, 00:07:31,     47,    0.0,   10.1,   0.00,   0.00, 1012.4,   98.8, -999.0
19-05-2022, 00:07:41,     48,    0.0,   10.2,   0.00,   0.00, 1012.4,   98.8, -999.0
19-05-2022, 00:07:51,     47,    0.0,   10.2,   0.00,   0.00, 1012.4,   98.7, -999.0
19-05-2022, 00:08:01,     48,    0.0,   10.2,   0.00,   0.00, 1012.4,   98.7, -999.0
19-05-2022, 00:08:10,     47,    0.0,   10.1,   0.00,   0.00, 1012.4,   98.6, -999.0
19-05-2022, 00:08:21,     48,    0.0,   10.2,   0.00,   0.00, 1012.4,   98.7, -999.0
19-05-2022, 00:08:31,     47,    0.0,   10.1,   0.00,   0.00, 1012.4,   98.7, -999.0
19-05-2022, 00:08:40,     48,    0.0,   10.2,   0.00,   0.00, 1012.4,   98.8, -999.0
19-05-2022, 00:08:51,     48,    0.0,   10.1,   0.00,   0.00, 1012.4,   98.7, -999.0
19-05-2022, 00:09:01,     48,    0.0,   10.0,   0.00,   0.00, 1012.4,   98.8, -999.0
19-05-2022, 00:09:10,     48,    0.0,   10.1,   0.00,   0.00, 1012.4,   98.8, -999.0
19-05-2022, 00:09:20,     48,    0.0,   10.0,   0.00,   0.00, 1012.5,   98.8, -999.0
19-05-2022, 00:09:30,     48,    0.0,   10.1,   0.00,   0.00, 1012.4,   98.7, -999.0
19-05-2022, 00:09:40,     47,    0.0,   10.1,   0.00,   0.00, 1012.4,   98.8, -999.0
19-05-2022, 00:09:50,     47,    0.0,   10.1,   0.00,   0.00, 1012.5,   98.7, -999.0
19-05-2022, 00:10:00,     47,    0.0,   10.1,   0.00,   0.00, 1012.4,   98.7, -999.0
19-05-2022, 00:10:10,     48,    0.0,   10.1,   0.00,   0.00, 1012.5,   98.7, -999.0
19-05-2022, 00:10:20,     47,    0.0,   10.0,   0.00,   0.00, 1012.5,   98.7, -999.0
19-05-2022, 00:10:30,     47,    0.0,   10.1,   0.00,   0.00, 1012.4,   98.7, -999.0
19-05-2022, 00:10:40,     48,    0.0,   10.2,   0.00,   0.00, 1012.5,   98.7, -999.0
19-05-2022, 00:10:50,     48,    0.0,   10.2,   0.00,   0.00, 1012.5,   98.8, -999.0
19-05-2022, 00:11:00,     47,    0.0,   10.1,   0.00,   0.00, 1012.5,   98.7, -999.0
19-05-2022, 00:11:10,     48,    0.0,   10.1,   0.00,   0.00, 1012.5,   98.7, -999.0
19-05-2022, 00:11:20,     47,    0.0,   10.1,   0.00,   0.00, 1012.5,   98.7, -999.0
19-05-2022, 00:11:30,     47,    0.0,   10.1,   0.00,   0.00, 1012.5,   98.7, -999.0
19-05-2022, 00:11:40,     48,    0.0,   10.1,   0.00,   0.00, 1012.5,   98.7, -999.0
19-05-2022, 00:11:49,     48,    0.0,   10.0,   0.00,   0.01, 1012.5,   98.7, -999.0
19-05-2022, 00:12:00,     47,    0.0,   10.1,   0.00,   0.00, 1012.5,   98.6, -999.0
19-05-2022, 00:12:09,     47,    0.0,   10.1,   0.00,   0.00, 1012.5,   98.7, -999.0
19-05-2022, 00:12:19,     48,    0.0,   10.1,   0.00,   0.00, 1012.4,   98.7, -999.0
19-05-2022, 00:12:29,     47,    0.0,   10.1,   0.00,   0.00, 1012.4,   98.8, -999.0
19-05-2022, 00:12:39,     47,    0.0,   10.0,   0.00,   0.00, 1012.4,   98.7, -999.0
19-05-2022, 00:12:49,     48,    0.0,   10.0,   0.00,   0.00, 1012.4,   98.8, -999.0
19-05-2022, 00:12:59,     47,    0.0,   10.0,   0.00,   0.00, 1012.4,   98.8, -999.0
19-05-2022, 00:13:09,     48,    0.0,   10.1,   0.00,   0.00, 1012.4,   98.8, -999.0
19-05-2022, 00:13:19,     47,    0.0,   10.0,   0.00,   0.00, 1012.4,   98.7, -999.0
19-05-2022, 00:13:29,     48,    0.0,   10.1,   0.00,   0.00, 1012.4,   98.7, -999.0
19-05-2022, 00:13:39,     47,    0.0,   10.0,   0.00,   0.00, 1012.4,   98.8, -999.0
19-05-2022, 00:13:49,     47,    0.0,   10.0,   0.00,   0.00, 1012.4,   98.7, -999.0
19-05-2022, 00:13:59,     48,    0.0,   10.1,   0.00,   0.00, 1012.4,   98.8, -999.0
19-05-2022, 00:14:09,     47,    0.0,   10.1,   0.00,   0.00, 1012.4,   98.8, -999.0
19-05-2022, 00:14:19,     48,    0.0,   10.1,   0.00,   0.00, 1012.4,   98.7, -999.0
19-05-2022, 00:14:29,     47,    0.0,   10.1,   0.00,   0.00, 1012.4,   98.7, -999.0
19-05-2022, 00:14:39,     47,    0.0,   10.1,   0.00,   0.00, 1012.4,   98.7, -999.0
19-05-2022, 00:14:48,     47,    0.0,   10.1,   0.00,   0.00, 1012.4,   98.8, -999.0
19-05-2022, 00:14:58,     47,    0.0,   10.1,   0.00,   0.00, 1012.4,   98.6, -999.0
19-05-2022, 00:15:09,     47,    0.0,   10.1,   0.00,   0.00, 1012.4,   98.7, -999.0
19-05-2022, 00:15:18,     47,    0.0,   10.1,   0.00,   0.00, 1012.4,   98.7, -999.0
19-05-2022, 00:15:28,     47,    0.0,   10.1,   0.00,   0.00, 1012.4,   98.7, -999.0
19-05-2022, 00:15:39,     48,    0.0,   10.1,   0.00,   0.00, 1012.4,   98.7, -999.0
19-05-2022, 00:15:48,     47,    0.0,   10.0,   0.00,   0.00, 1012.4,   98.7, -999.0
19-05-2022, 00:15:58,     47,    0.0,   10.0,   0.00,   0.00, 1012.4,   98.7, -999.0
19-05-2022, 00:16:08,     48,    0.0,   10.0,   0.00,   0.00, 1012.4,   98.7, -999.0
19-05-2022, 00:16:18,     47,    0.0,    9.9,   0.00,   0.00, 1012.4,   98.7, -999.0
19-05-2022, 00:16:28,     47,    0.0,    9.9,   0.00,   0.00, 1012.4,   98.7, -999.0
19-05-2022, 00:16:38,     47,    0.0,   10.0,   0.00,   0.00, 1012.4,   98.8, -999.0
19-05-2022, 00:16:48,     47,    0.0,    9.9,   0.00,   0.00, 1012.4,   98.7, -999.0
19-05-2022, 00:16:58,     47,    0.0,   10.0,   0.00,   0.00, 1012.4,   98.7, -999.0
19-05-2022, 00:17:08,     48,    0.0,    9.9,   0.00,   0.00, 1012.4,   98.8, -999.0
19-05-2022, 00:17:18,     47,    0.0,    9.9,   0.00,   0.00, 1012.4,   98.7, -999.0
19-05-2022, 00:17:27,     48,    0.0,    9.9,   0.00,   0.00, 1012.4,   98.8, -999.0
19-05-2022, 00:17:38,     48,    0.0,    9.9,   0.00,   0.00, 1012.4,   98.7, -999.0
19-05-2022, 00:17:48,     48,    0.0,    9.9,   0.00,   0.00, 1012.4,   98.8, -999.0
19-05-2022, 00:17:57,     47,    0.0,    9.9,   0.00,   0.00, 1012.4,   98.7, -999.0
19-05-2022, 00:18:08,     47,    0.0,    9.9,   0.00,   0.00, 1012.4,   98.7, -999.0
19-05-2022, 00:18:18,     48,    0.0,    9.9,   0.00,   0.00, 1012.4,   98.8, -999.0
19-05-2022, 00:18:27,     47,    0.0,    9.9,   0.00,   0.00, 1012.4,   98.7, -999.0
19-05-2022, 00:18:37,     48,    0.0,    9.9,   0.00,   0.00, 1012.4,   98.7, -999.0
19-05-2022, 00:18:47,     48,    0.0,    9.9,   0.00,   0.00, 1012.4,   98.8, -999.0
19-05-2022, 00:18:57,     48,    0.0,    9.9,   0.00,   0.00, 1012.4,   98.7, -999.0
19-05-2022, 00:19:07,     47,    0.0,    9.8,   0.00,   0.00, 1012.4,   98.7, -999.0
19-05-2022, 00:19:17,     47,    0.0,    9.8,   0.00,   0.00, 1012.5,   98.7, -999.0
19-05-2022, 00:19:27,     48,    0.0,    9.9,   0.00,   0.00, 1012.4,   98.6, -999.0
19-05-2022, 00:19:37,     47,    0.0,    9.9,   0.00,   0.00, 1012.4,   98.7, -999.0
19-05-2022, 00:19:47,     47,    0.0,    9.9,   0.00,   0.00, 1012.4,   98.7, -999.0
19-05-2022, 00:19:57,     48,    0.0,   10.0,   0.00,   0.00, 1012.4,   98.7, -999.0
19-05-2022, 00:20:07,     48,    0.0,   10.0,   0.00,   0.00, 1012.4,   98.6, -999.0
19-05-2022, 00:20:17,     47,    0.0,    9.9,   0.00,   0.00, 1012.4,   98.7, -999.0
19-05-2022, 00:20:27,     47,    0.0,    9.9,   0.00,   0.00, 1012.4,   98.8, -999.0
19-05-2022, 00:20:37,     47,    0.0,   10.0,   0.00,   0.00, 1012.4,   98.7, -999.0
19-05-2022, 00:20:47,     47,    0.0,    9.9,   0.00,   0.00, 1012.4,   98.7, -999.0
19-05-2022, 00:20:57,     48,    0.0,    9.9,   0.00,   0.00, 1012.4,   98.7, -999.0
19-05-2022, 00:21:06,     48,    0.0,   10.0,   0.00,   0.00, 1012.4,   98.8, -999.0
19-05-2022, 00:21:17,      0,    0.4,   10.1,   0.00,   0.00, 1012.5,   99.1, -999.0
19-05-2022, 00:21:26,    356,    0.4,   10.0,   0.00,   0.00, 1012.6,   99.2, -999.0
19-05-2022, 00:21:36,    355,    0.0,    9.9,   0.00,   0.00, 1012.5,   99.0, -999.0
19-05-2022, 00:21:47,    356,    0.0,    9.8,   0.00,   0.00, 1012.4,   98.7, -999.0
19-05-2022, 00:21:56,    355,    0.0,    9.9,   0.00,   0.00, 1012.4,   98.8, -999.0
19-05-2022, 00:22:06,    355,    0.0,    9.9,   0.00,   0.00, 1012.4,   98.7, -999.0
19-05-2022, 00:22:16,    355,    0.0,   10.0,   0.00,   0.00, 1012.5,   99.0, -999.0
19-05-2022, 00:22:26,    355,    0.0,   10.0,   0.00,   0.00, 1012.4,   98.6, -999.0
19-05-2022, 00:22:36,    355,    0.0,    9.9,   0.00,   0.00, 1012.4,   98.7, -999.0
19-05-2022, 00:22:46,    355,    0.0,    9.9,   0.00,   0.00, 1012.4,   98.7, -999.0
19-05-2022, 00:22:56,    355,    0.0,    9.8,   0.00,   0.00, 1012.4,   98.6, -999.0
19-05-2022, 00:23:06,    355,    0.0,    9.9,   0.00,   0.00, 1012.4,   98.7, -999.0
19-05-2022, 00:23:16,    355,    0.0,    9.8,   0.00,   0.00, 1012.4,   98.7, -999.0
19-05-2022, 00:23:26,    355,    0.0,    9.8,   0.00,   0.00, 1012.4,   98.8, -999.0
19-05-2022, 00:23:38,    356,    0.0,    9.9,   0.00,   0.00, 1012.4,   98.7, -999.0
19-05-2022, 00:23:46,    355,    0.0,   10.0,   0.00,   0.00, 1012.4,   98.8, -999.0
19-05-2022, 00:23:56,    355,    0.0,    9.9,   0.00,   0.00, 1012.4,   98.8, -999.0
19-05-2022, 00:24:05,    355,    0.0,    9.9,   0.00,   0.00, 1012.5,   98.7, -999.0
19-05-2022, 00:24:16,    355,    0.0,   10.0,   0.00,   0.00, 1012.4,   98.9, -999.0
19-05-2022, 00:24:26,    355,    0.0,    9.9,   0.00,   0.00, 1012.4,   98.8, -999.0
19-05-2022, 00:24:35,    356,    0.0,    9.9,   0.00,   0.00, 1012.4,   98.8, -999.0
19-05-2022, 00:24:45,    355,    0.0,    9.9,   0.00,   0.00, 1012.4,   98.7, -999.0
19-05-2022, 00:24:56,    355,    0.0,    9.8,   0.00,   0.00, 1012.4,   98.7, -999.0
19-05-2022, 00:25:05,    355,    0.0,    9.9,   0.00,   0.00, 1012.4,   98.7, -999.0
19-05-2022, 00:25:15,    355,    0.0,    9.9,   0.00,   0.00, 1012.4,   98.7, -999.0
19-05-2022, 00:25:25,    355,    0.0,    9.9,   0.00,   0.00, 1012.4,   98.7, -999.0
19-05-2022, 00:25:35,    355,    0.0,    9.9,   0.00,   0.00, 1012.4,   98.7, -999.0
19-05-2022, 00:25:45,    355,    0.0,    9.9,   0.00,   0.00, 1012.4,   98.7, -999.0
19-05-2022, 00:25:55,    355,    0.0,    9.9,   0.00,   0.00, 1012.4,   98.7, -999.0
19-05-2022, 00:26:05,    355,    0.0,    9.9,   0.00,   0.00, 1012.4,   98.7, -999.0
19-05-2022, 00:26:15,    356,    0.0,    9.9,   0.00,   0.00, 1012.4,   98.8, -999.0
19-05-2022, 00:26:25,    355,    0.0,    9.9,   0.00,   0.00, 1012.4,   98.6, -999.0
19-05-2022, 00:26:35,    355,    0.0,    9.9,   0.00,   0.00, 1012.4,   98.8, -999.0
19-05-2022, 00:26:45,    355,    0.0,   10.0,   0.00,   0.00, 1012.4,   98.8, -999.0
19-05-2022, 00:26:55,    355,    0.0,    9.9,   0.00,   0.00, 1012.4,   98.7, -999.0
19-05-2022, 00:27:05,    355,    0.0,    9.9,   0.00,   0.00, 1012.4,   98.7, -999.0
19-05-2022, 00:27:14,    355,    0.0,    9.9,   0.00,   0.00, 1012.4,   98.6, -999.0
19-05-2022, 00:27:25,    355,    0.0,    9.9,   0.00,   0.00, 1012.4,   98.7, -999.0
19-05-2022, 00:27:35,    355,    0.0,    9.9,   0.00,   0.00, 1012.4,   98.7, -999.0
19-05-2022, 00:27:44,    355,    0.0,    9.9,   0.00,   0.00, 1012.4,   98.7, -999.0
19-05-2022, 00:27:54,    355,    0.0,    9.8,   0.00,   0.00, 1012.4,   98.7, -999.0
19-05-2022, 00:28:05,    355,    0.0,    9.8,   0.00,   0.00, 1012.4,   98.8, -999.0
19-05-2022, 00:28:14,    355,    0.0,    9.9,   0.00,   0.00, 1012.4,   98.8, -999.0
19-05-2022, 00:28:24,    355,    0.0,    9.9,   0.00,   0.00, 1012.4,   98.7, -999.0
19-05-2022, 00:28:35,    355,    0.0,    9.8,   0.00,   0.00, 1012.4,   98.8, -999.0
19-05-2022, 00:28:44,    356,    0.0,    9.8,   0.00,   0.00, 1012.4,   98.7, -999.0
19-05-2022, 00:28:54,    356,    0.0,    9.9,   0.00,   0.00, 1012.4,   98.7, -999.0
19-05-2022, 00:29:04,    355,    0.0,    9.8,   0.00,   0.00, 1012.4,   98.8, -999.0
19-05-2022, 00:29:14,    355,    0.0,    9.9,   0.00,   0.00, 1012.4,   98.7, -999.0
19-05-2022, 00:29:24,    355,    0.0,    9.9,   0.00,   0.00, 1012.3,   98.7, -999.0
19-05-2022, 00:29:34,    355,    0.0,    9.8,   0.00,   0.00, 1012.4,   98.8, -999.0
19-05-2022, 00:29:44,    356,    0.0,    9.8,   0.00,   0.00, 1012.4,   98.7, -999.0
19-05-2022, 00:29:54,    355,    0.0,    9.8,   0.00,   0.00, 1012.4,   98.7, -999.0
19-05-2022, 00:30:04,    356,    0.0,    9.9,   0.00,   0.00, 1012.4,   98.7, -999.0
19-05-2022, 00:30:14,    356,    0.0,    9.8,   0.00,   0.00, 1012.4,   98.8, -999.0
19-05-2022, 00:30:23,    355,    0.0,    9.7,   0.00,   0.00, 1012.4,   98.7, -999.0
19-05-2022, 00:30:34,    355,    0.0,    9.7,   0.00,   0.00, 1012.4,   98.7, -999.0
19-05-2022, 00:30:44,    355,    0.0,    9.7,   0.00,   0.00, 1012.4,   98.6, -999.0
19-05-2022, 00:30:53,    355,    0.0,    9.8,   0.00,   0.00, 1012.3,   98.8, -999.0
19-05-2022, 00:31:04,    355,    0.0,    9.7,   0.00,   0.00, 1012.4,   98.8, -999.0
19-05-2022, 00:31:14,    355,    0.0,    9.7,   0.00,   0.00, 1012.3,   98.8, -999.0
19-05-2022, 00:31:23,    356,    0.0,    9.8,   0.00,   0.00, 1012.3,   98.7, -999.0
19-05-2022, 00:31:33,    355,    0.0,    9.9,   0.00,   0.00, 1012.3,   98.7, -999.0
19-05-2022, 00:31:43,    355,    0.0,    9.7,   0.00,   0.00, 1012.3,   98.7, -999.0
19-05-2022, 00:31:53,    356,    0.0,    9.9,   0.00,   0.00, 1012.3,   98.8, -999.0
19-05-2022, 00:32:03,    356,    0.0,    9.9,   0.00,   0.00, 1012.3,   98.7, -999.0
19-05-2022, 00:32:13,    355,    0.0,    9.9,   0.00,   0.00, 1012.2,   98.6, -999.0
19-05-2022, 00:32:23,    355,    0.0,    9.9,   0.00,   0.00, 1012.2,   98.6, -999.0
19-05-2022, 00:32:33,    356,    0.0,   10.0,   0.00,   0.00, 1012.2,   98.8, -999.0
19-05-2022, 00:32:43,    355,    0.0,   10.0,   0.00,   0.00, 1012.2,   98.8, -999.0
19-05-2022, 00:32:53,    355,    0.0,   10.0,   0.00,   0.00, 1012.2,   98.8, -999.0
19-05-2022, 00:33:03,    355,    0.0,   10.0,   0.00,   0.00, 1012.2,   98.7, -999.0
19-05-2022, 00:33:13,    355,    0.0,    9.9,   0.00,   0.00, 1012.2,   98.8, -999.0
19-05-2022, 00:33:23,    356,    0.0,    9.9,   0.00,   0.00, 1012.2,   98.7, -999.0
19-05-2022, 00:33:33,    355,    0.0,    9.9,   0.00,   0.00, 1012.2,   98.7, -999.0
19-05-2022, 00:33:43,    356,    0.0,    9.9,   0.00,   0.00, 1012.2,   98.7, -999.0
19-05-2022, 00:33:53,    355,    0.0,   10.0,   0.00,   0.00, 1012.2,   98.6, -999.0
19-05-2022, 00:34:02,    355,    0.0,    9.9,   0.00,   0.00, 1012.2,   98.7, -999.0
19-05-2022, 00:34:13,    356,    0.0,    9.9,   0.00,   0.00, 1012.2,   98.6, -999.0
19-05-2022, 00:34:23,    356,    0.0,   10.1,   0.00,   0.00, 1012.2,   98.7, -999.0
19-05-2022, 00:34:32,    356,    0.0,   10.1,   0.00,   0.00, 1012.2,   98.8, -999.0
19-05-2022, 00:34:42,    356,    0.0,   10.1,   0.00,   0.00, 1012.2,   98.7, -999.0
19-05-2022, 00:34:52,    355,    0.0,   10.1,   0.00,   0.00, 1012.2,   98.8, -999.0
19-05-2022, 00:35:02,    355,    0.0,   10.1,   0.00,   0.00, 1012.1,   98.7, -999.0
19-05-2022, 00:35:12,    356,    0.0,   10.0,   0.00,   0.00, 1012.2,   98.7, -999.0
19-05-2022, 00:35:22,    355,    0.0,   10.0,   0.00,   0.00, 1012.2,   98.7, -999.0
19-05-2022, 00:35:32,    355,    0.0,   10.1,   0.00,   0.00, 1012.2,   98.7, -999.0
19-05-2022, 00:35:42,    357,    0.0,   10.0,   0.00,   0.00, 1012.2,   98.7, -999.0
19-05-2022, 00:35:52,    356,    0.0,    9.9,   0.00,   0.00, 1012.2,   98.7, -999.0
19-05-2022, 00:36:02,    355,    0.0,   10.0,   0.00,   0.00, 1012.2,   98.7, -999.0
19-05-2022, 00:36:12,    355,    0.0,    9.9,   0.00,   0.00, 1012.2,   98.8, -999.0
19-05-2022, 00:36:22,    355,    0.0,    9.9,   0.00,   0.00, 1012.2,   98.7, -999.0
19-05-2022, 00:36:32,    355,    0.0,    9.9,   0.00,   0.00, 1012.2,   98.7, -999.0
19-05-2022, 00:36:42,    355,    0.0,   10.0,   0.00,   0.00, 1012.2,   98.7, -999.0
19-05-2022, 00:36:52,    355,    0.0,   10.0,   0.00,   0.00, 1012.3,   98.7, -999.0
19-05-2022, 00:37:02,    355,    0.0,    9.9,   0.00,   0.00, 1012.3,   98.8, -999.0
19-05-2022, 00:37:11,    355,    0.0,   10.0,   0.00,   0.00, 1012.3,   98.8, -999.0
19-05-2022, 00:37:22,    355,    0.0,    9.9,   0.00,   0.00, 1012.3,   98.7, -999.0
19-05-2022, 00:37:32,    355,    0.0,   10.0,   0.00,   0.00, 1012.4,   98.7, -999.0
19-05-2022, 00:37:41,    355,    0.0,    9.9,   0.00,   0.00, 1012.4,   98.7, -999.0
19-05-2022, 00:37:51,    355,    0.0,    9.9,   0.00,   0.00, 1012.4,   98.7, -999.0
19-05-2022, 00:38:01,    356,    0.0,    9.9,   0.00,   0.00, 1012.4,   98.9, -999.0
19-05-2022, 00:38:11,    356,    0.0,    9.9,   0.00,   0.00, 1012.4,   98.8, -999.0
19-05-2022, 00:38:21,    355,    0.0,    9.9,   0.00,   0.00, 1012.4,   98.7, -999.0
19-05-2022, 00:38:31,    355,    0.0,    9.9,   0.00,   0.00, 1012.4,   98.7, -999.0
19-05-2022, 00:38:41,    355,    0.0,    9.9,   0.00,   0.00, 1012.4,   98.8, -999.0
19-05-2022, 00:38:51,    355,    0.0,    9.9,   0.00,   0.00, 1012.4,   98.7, -999.0
19-05-2022, 00:39:01,    356,    0.0,    9.9,   0.00,   0.00, 1012.4,   98.7, -999.0
19-05-2022, 00:39:11,    355,    0.0,    9.8,   0.00,   0.00, 1012.4,   98.6, -999.0
19-05-2022, 00:39:21,    355,    0.0,    9.8,   0.00,   0.00, 1012.4,   98.7, -999.0
19-05-2022, 00:39:31,    356,    0.0,    9.8,   0.00,   0.00, 1012.4,   98.8, -999.0
19-05-2022, 00:39:41,    355,    0.0,    9.8,   0.00,   0.00, 1012.4,   98.8, -999.0
19-05-2022, 00:39:51,    356,    0.0,    9.8,   0.00,   0.00, 1012.4,   98.8, -999.0
19-05-2022, 00:40:01,    355,    0.0,    9.8,   0.00,   0.00, 1012.4,   98.7, -999.0
19-05-2022, 00:40:11,    355,    0.0,    9.8,   0.00,   0.00, 1012.4,   98.8, -999.0
19-05-2022, 00:40:20,    355,    0.0,    9.8,   0.00,   0.00, 1012.4,   98.7, -999.0
19-05-2022, 00:40:31,    355,    0.0,    9.8,   0.00,   0.00, 1012.4,   98.7, -999.0
19-05-2022, 00:40:41,    355,    0.0,    9.8,   0.00,   0.00, 1012.4,   98.7, -999.0
19-05-2022, 00:40:50,    356,    0.0,    9.7,   0.00,   0.00, 1012.4,   98.7, -999.0
19-05-2022, 00:41:00,    355,    0.0,    9.8,   0.00,   0.00, 1012.4,   98.7, -999.0
19-05-2022, 00:41:10,    355,    0.0,    9.8,   0.00,   0.00, 1012.4,   98.7, -999.0
19-05-2022, 00:41:20,    355,    0.0,    9.7,   0.00,   0.00, 1012.4,   98.7, -999.0
19-05-2022, 00:41:30,    355,    0.0,    9.7,   0.00,   0.00, 1012.4,   98.7, -999.0
19-05-2022, 00:41:40,    355,    0.0,    9.7,   0.00,   0.00, 1012.4,   98.8, -999.0
19-05-2022, 00:41:50,    356,    0.0,    9.7,   0.00,   0.00, 1012.4,   98.6, -999.0
19-05-2022, 00:42:00,    356,    0.0,    9.7,   0.00,   0.00, 1012.4,   98.7, -999.0
19-05-2022, 00:42:10,    355,    0.0,    9.7,   0.00,   0.00, 1012.4,   98.7, -999.0
19-05-2022, 00:42:20,    355,    0.0,    9.8,   0.00,   0.00, 1012.4,   98.7, -999.0
19-05-2022, 00:42:30,    356,    0.0,    9.8,   0.00,   0.00, 1012.4,   98.6, -999.0
19-05-2022, 00:42:40,    355,    0.0,    9.8,   0.00,   0.00, 1012.4,   98.8, -999.0
19-05-2022, 00:42:50,    355,    0.0,    9.8,   0.00,   0.00, 1012.4,   98.7, -999.0
19-05-2022, 00:43:00,    355,    0.0,    9.7,   0.00,   0.00, 1012.4,   98.7, -999.0
19-05-2022, 00:43:10,    355,    0.0,    9.8,   0.00,   0.00, 1012.4,   98.8, -999.0
19-05-2022, 00:43:20,    355,    0.0,    9.8,   0.00,   0.00, 1012.4,   98.7, -999.0
19-05-2022, 00:43:30,    355,    0.0,    9.8,   0.00,   0.00, 1012.4,   98.8, -999.0
19-05-2022, 00:43:40,    355,    0.0,    9.7,   0.00,   0.00, 1012.4,   98.7, -999.0
19-05-2022, 00:43:49,    355,    0.0,    9.7,   0.00,   0.00, 1012.4,   98.7, -999.0
19-05-2022, 00:43:59,    355,    0.0,    9.7,   0.00,   0.00, 1012.4,   98.7, -999.0
19-05-2022, 00:44:10,    355,    0.0,    9.7,   0.00,   0.00, 1012.4,   98.7, -999.0
19-05-2022, 00:44:19,    355,    0.0,    9.7,   0.00,   0.00, 1012.4,   98.8, -999.0
19-05-2022, 00:44:29,    355,    0.0,    9.8,   0.00,   0.00, 1012.4,   98.7, -999.0
19-05-2022, 00:44:39,    355,    0.0,    9.8,   0.00,   0.00, 1012.4,   98.7, -999.0
19-05-2022, 00:44:49,    355,    0.0,    9.8,   0.00,   0.00, 1012.4,   98.8, -999.0
19-05-2022, 00:44:59,    355,    0.0,    9.8,   0.00,   0.00, 1012.4,   98.7, -999.0
19-05-2022, 00:45:09,    355,    0.0,    9.9,   0.00,   0.00, 1012.4,   98.6, -999.0
19-05-2022, 00:45:19,    355,    0.0,    9.8,   0.00,   0.00, 1012.4,   98.7, -999.0
19-05-2022, 00:45:29,    355,    0.0,    9.8,   0.00,   0.00, 1012.4,   98.7, -999.0
19-05-2022, 00:45:39,    355,    0.0,    9.8,   0.00,   0.00, 1012.4,   98.7, -999.0
19-05-2022, 00:45:49,    356,    0.0,    9.8,   0.00,   0.00, 1012.4,   98.7, -999.0
19-05-2022, 00:45:59,    355,    0.0,    9.8,   0.00,   0.00, 1012.4,   98.7, -999.0
19-05-2022, 00:46:09,    355,    0.0,    9.7,   0.00,   0.00, 1012.4,   98.7, -999.0
19-05-2022, 00:46:19,    355,    0.0,    9.7,   0.00,   0.00, 1012.4,   98.7, -999.0
19-05-2022, 00:46:28,    355,    0.0,    9.6,   0.00,   0.00, 1012.4,   98.7, -999.0
19-05-2022, 00:46:39,    355,    0.0,    9.7,   0.00,   0.00, 1012.4,   98.7, -999.0